Find Starlink 33601

NORAD ID: 62768 Int'l Des: 2025-015 Owner: SPXS Country: US Constellation: starlink operational
LEOCIRCULAR

Current View

Loading 3D Globe...

About Starlink 33601

Starlink 33601 (NORAD 62768) is a starlink constellation satellite (v2 mini) launched Jan 21, 2025 by SPXS of US. It operates in LEO, CIRCULAR orbit with a mass of 575.00 kg.

Upcoming Passes

Passes for default location (London). Set your location on the main map for personalized predictions.

Altitude History

Loading altitude history...

Two-Line Element Set

1 62768U 25015L 26265.31935542 .00056118 00000-0 16565-2 0 9991
2 62768 53.1572 125.0463 0001170 110.0302 250.0827 15.34460726 94646
Epoch: Sep 22, 2026 • Age: 23 hours

Current Status

Altitude 466.8 km
Apogee / Perigee N/A
Velocity 7.63 km/s
Sub-Earth Point -16.94°S, 144.71°W
Launch Date Jan 21, 2025
Age 1.6 years
Type internet

Technical Details

Classification Payload
Mass 575.00 kg
Dry Mass 530.00 kg
Length 0.30 m
Span 29.00 m
Shape ? Box + pan
Manufacturer SPXS
Bus Type Starlink V2MO
Phase Status In Orbit
Owner/State SPXS/US

Most Searched